QPF
0.00 0.00 0.01 0.01 0.00 0.00 0.00 0.00 0.00 0.00 0.00 0.00 0.00 0.00 0.00 0.00 0.00 0.00 0.00 0.00 0.00 0.00 0.00 0.00 0.00 0.00 0.00 0.00 0.00 0.00 0.00 0.00 0.00 0.00 0.00 0.00 0.00 0.00 0.00 0.00 0.00 0.00 0.00 0.00
0.00 0.00 0.00 0.01 0.00 0.00 0.00 0.00 0.00 0.00 0.00 0.00 0.00 0.00 0.00 0.00 0.00 0.00 0.00 0.00 0.00 0.00 0.00 0.00 0.00 0.00 0.00 0.00 0.00 0.00 0.00 0.00 0.00 0.00 0.00 0.00 0.00 0.00 0.00 0.00 0.00 0.00 0.00 0.00
0.01 0.00 0.00 0.01 0.00 0.00 0.00 0.00 0.00 0.00 0.00 0.00 0.00 0.00 0.00 0.00 0.00 0.00 0.00 0.00 0.00 0.00 0.00 0.00 0.00 0.00 0.00 0.00 0.00 0.00 0.00 0.00 0.00 0.00 0.00 0.00 0.00 0.00 0.00 0.00 0.00 0.00 0.00 0.00
0.02 0.01 0.02 0.00 0.00 0.00 0.00 0.00 0.00 0.00 0.00 0.00 0.00 0.00 0.00 0.00 0.00 0.00 0.00 0.00 0.00 0.00 0.00 0.00 0.00 0.00 0.00 0.00 0.00 0.00 0.00 0.00 0.00 0.00 0.00 0.00 0.00 0.00 0.00 0.00 0.00 0.00 0.00 0.00
0.02 0.01 0.01 0.00 0.00 0.00 0.00 0.00 0.00 0.00 0.00 0.00 0.00 0.00 0.00 0.00 0.00 0.00 0.00 0.00 0.00 0.00 0.00 0.00 0.00 0.00 0.00 0.00 0.00 0.00 0.00 0.00 0.00 0.00 0.00 0.00 0.00 0.00 0.00 0.00 0.00 0.00 0.00 0.00
0.02 0.03 0.02 0.00 0.00 0.00 0.00 0.00 0.00 0.00 0.00 0.00 0.00 0.00 0.00 0.00 0.00 0.00 0.00 0.00 0.00 0.00 0.00 0.00 0.00 0.00 0.00 0.00 0.00 0.00 0.00 0.00 0.00 0.00 0.00 0.00 0.00 0.00 0.00 0.00 0.00 0.00 0.00 0.00
0.02 0.04 0.01 0.00 0.00 0.00 0.00 0.00 0.00 0.00 0.00 0.00 0.00 0.00 0.00 0.00 0.00 0.00 0.00 0.00 0.00 0.00 0.00 0.00 0.00 0.00 0.00 0.00 0.00 0.00 0.00 0.00 0.00 0.00 0.00 0.00 0.00 0.00 0.00 0.00 0.00 0.00 0.00 0.00
0.04 0.03 0.02 0.00 0.00 0.00 0.00 0.00 0.00 0.00 0.00 0.00 0.00 0.00 0.00 0.00 0.00 0.00 0.00 0.00 0.00 0.00 0.00 0.00 0.00 0.00 0.00 0.00 0.00 0.00 0.00 0.00 0.00 0.00 0.00 0.00 0.00 0.00 0.00 0.00 0.00 0.00 0.00 0.00
0.03 0.05 0.02 0.00 0.00 0.00 0.00 0.00 0.00 0.00 0.00 0.00 0.00 0.00 0.00 0.00 0.00 0.00 0.00 0.00 0.00 0.00 0.00 0.00 0.00 0.00 0.00 0.00 0.00 0.00 0.00 0.00 0.00 0.00 0.00 0.00 0.00 0.00 0.00 0.00 0.00 0.00 0.00 0.00
0.01 0.00 0.00 0.00 0.00 0.00 0.00 0.00 0.00 0.00 0.00 0.00 0.00 0.00 0.00 0.00 0.00 0.00 0.00 0.00 0.00 0.00 0.00 0.00 0.00 0.00 0.00 0.00 0.00 0.00 0.00 0.00 0.00 0.00 0.00 0.00 0.00 0.00 0.00 0.00 0.00 0.00 0.00 0.00
0.00 0.00 0.00 0.00 0.00 0.00 0.00 0.00 0.00 0.00 0.00 0.00 0.00 0.00 0.00 0.00 0.00 0.00 0.00 0.00 0.00 0.00 0.00 0.00 0.00 0.00 0.00 0.00 0.00 0.00 0.00 0.00 0.00 0.00 0.00 0.00 0.00 0.00 0.00 0.00 0.00 0.00 0.00 0.00
0.00 0.00 0.00 0.00 0.00 0.00 0.00 0.00 0.00 0.00 0.01 0.02 0.02 0.01 0.00 0.00 0.00 0.00 0.00 0.00 0.00 0.00 0.00 0.00 0.00 0.00 0.00 0.00 0.00 0.00 0.00 0.00 0.00 0.00 0.00 0.00 0.00 0.00 0.00 0.00 0.00 0.00 0.00 0.00
0.00 0.00 0.00 0.00 0.00 0.00 0.00 0.00 0.00 0.01 0.01 0.00 0.01 0.00 0.00 0.00 0.00 0.00 0.00 0.00 0.00 0.00 0.00 0.00 0.00 0.00 0.00 0.00 0.00 0.00 0.00 0.00 0.00 0.00 0.00 0.00 0.00 0.00 0.00 0.00 0.00 0.00 0.00 0.00
0.00 0.00 0.00 0.00 0.00 0.00 0.00 0.00 0.00 0.00 0.00 0.00 0.01 0.00 0.00 0.00 0.00 0.00 0.00 0.00 0.00 0.00 0.00 0.00 0.00 0.00 0.00 0.00 0.00 0.00 0.00 0.00 0.00 0.00 0.00 0.00 0.00 0.00 0.00 0.00 0.00 0.00 0.00 0.01
0.00 0.00 0.00 0.00 0.00 0.00 0.00 0.00 0.00 0.00 0.00 0.00 0.00 0.00 0.00 0.00 0.00 0.00 0.00 0.00 0.00 0.00 0.00 0.00 0.00 0.00 0.00 0.00 0.00 0.00 0.00 0.00 0.00 0.00 0.00 0.00 0.00 0.00 0.00 0.00 0.00 0.00 0.00 0.00
0.00 0.00 0.00 0.00 0.00 0.00 0.00 0.00 0.00 0.00 0.00 0.00 0.00 0.00 0.00 0.00 0.00 0.00 0.00 0.00 0.00 0.01 0.00 0.00 0.00 0.00 0.00 0.00 0.00 0.00 0.00 0.00 0.00 0.00 0.00 0.00 0.00 0.00 0.00 0.00 0.00 0.00 0.00 0.00
0.00 0.00 0.00 0.00 0.00 0.00 0.00 0.00 0.00 0.00 0.00 0.00 0.00 0.00 0.00 0.00 0.00 0.00 0.00 0.00 0.01 0.01 0.00 0.00 0.00 0.00 0.00 0.00 0.00 0.00 0.00 0.00 0.00 0.00 0.00 0.00 0.00 0.00 0.00 0.00 0.00 0.00 0.00 0.00
0.00 0.00 0.00 0.00 0.00 0.00 0.00 0.00 0.00 0.00 0.00 0.00 0.00 0.00 0.00 0.00 0.00 0.00 0.00 0.00 0.00 0.00 0.00 0.00 0.00 0.00 0.00 0.00 0.00 0.00 0.00 0.00 0.00 0.00 0.00 0.00 0.00 0.00 0.00 0.00 0.00 0.00 0.00 0.00
0.00 0.00 0.00 0.00 0.00 0.00 0.00 0.00 0.00 0.00 0.00 0.00 0.00 0.00 0.00 0.00 0.00 0.00 0.00 0.00 0.00 0.00 0.00 0.00 0.00 0.00 0.00 0.00 0.00 0.00 0.00 0.00 0.00 0.00 0.00 0.00 0.00 0.00 0.00 0.00 0.00 0.00 0.00 0.00
0.00 0.00 0.00 0.00 0.00 0.00 0.00 0.00 0.00 0.00 0.00 0.00 0.00 0.00 0.00 0.00 0.00 0.00 0.00 0.00 0.01 0.01 0.00 0.00 0.00 0.00 0.00 0.00 0.00 0.00 0.00 0.00 0.00 0.00 0.00 0.00 0.00 0.00 0.00 0.00 0.00 0.00 0.00 0.00
0.00 0.00 0.00 0.00 0.00 0.00 0.00 0.00 0.00 0.00 0.00 0.00 0.00 0.00 0.00 0.00 0.00 0.00 0.00 0.00 0.00 0.00 0.00 0.00 0.00 0.00 0.00 0.00 0.00 0.00 0.00 0.00 0.00 0.00 0.00 0.00 0.00 0.00 0.00 0.00 0.00 0.00 0.00 0.00
0.00 0.00 0.00 0.00 0.00 0.00 0.00 0.00 0.00 0.00 0.00 0.00 0.00 0.00 0.00 0.00 0.00 0.00 0.00 0.00 0.00 0.00 0.00 0.00 0.00 0.00 0.00 0.00 0.00 0.00 0.00 0.00 0.00 0.00 0.00 0.00 0.00 0.00 0.00 0.00 0.00 0.00 0.00 0.00
0.00 0.00 0.00 0.00 0.00 0.00 0.00 0.00 0.00 0.00 0.00 0.00 0.00 0.00 0.00 0.00 0.00 0.00 0.00 0.00 0.00 0.00 0.00 0.00 0.00 0.00 0.00 0.00 0.00 0.00 0.00 0.00 0.00 0.00 0.00 0.00 0.00 0.00 0.00 0.00 0.00 0.00 0.00 0.00
0.00 0.00 0.00 0.00 0.00 0.00 0.00 0.00 0.00 0.00 0.00 0.00 0.00 0.00 0.00 0.00 0.00 0.00 0.00 0.00 0.00 0.00 0.00 0.00 0.00 0.00 0.00 0.00 0.00 0.00 0.00 0.00 0.00 0.00 0.00 0.00 0.00 0.00 0.00 0.00 0.00 0.00 0.00 0.00
0.00 0.00 0.00 0.00 0.00 0.00 0.00 0.00 0.00 0.00 0.00 0.00 0.00 0.00 0.00 0.00 0.00 0.00 0.00 0.00 0.00 0.00 0.00 0.00 0.00 0.00 0.00 0.00 0.00 0.00 0.00 0.00 0.00 0.00 0.00 0.00 0.00 0.00 0.00 0.00 0.00 0.00 0.00 0.00
0.00 0.00 0.00 0.00 0.00 0.00 0.00 0.00 0.00 0.00 0.00 0.00 0.00 0.00 0.00 0.00 0.00 0.00 0.00 0.00 0.00 0.00 0.00 0.00 0.00 0.00 0.00 0.00 0.00 0.00 0.00 0.00 0.00 0.00 0.00 0.00 0.00 0.00 0.00 0.00 0.00 0.00 0.00 0.00
0.00 0.00 0.00 0.00 0.00 0.00 0.00 0.00 0.00 0.00 0.00 0.00 0.00 0.00 0.00 0.00 0.00 0.00 0.00 0.00 0.00 0.00 0.00 0.00 0.00 0.00 0.00 0.00 0.00 0.00 0.00 0.00 0.00 0.00 0.00 0.00 0.00 0.00 0.00 0.00 0.00 0.00 0.00 0.00
MSLP
1011.05 1010.15 1009.45 1009.15 1008.65 1008.22 1008.36 1007.74 1006.82 1005.51 1004.56 1002.78 1003.22 1003.82 1004.71 1005.15 1006.51 1007.67 1008.58 1009.99 1011.42 1012.84 1014.31 1015.46 1016.43 1017.77 1018.51 1019.34 1020.37 1021.23 1022.11 1023.08 1024.01 1024.94 1025.39 1025.97 1026.67 1026.98 1027.36 1027.32 1027.42 1027.41 1027.23 1027.06
1010.72 1009.72 1009.34 1008.75 1007.89 1007.35 1007.19 1006.41 1005.74 1004.97 1003.26 1003.12 1003.39 1003.58 1004.28 1004.56 1005.36 1005.96 1007.23 1008.30 1010.08 1011.68 1013.02 1014.26 1015.30 1016.51 1017.62 1018.65 1019.53 1020.42 1021.42 1022.08 1023.13 1024.30 1025.02 1025.76 1026.23 1026.56 1026.91 1027.26 1027.39 1027.45 1027.24 1027.06
1010.03 1009.04 1008.40 1007.65 1006.20 1006.00 1005.08 1004.41 1004.34 1003.69 1001.97 1002.01 1002.04 1002.74 1003.01 1003.04 1003.72 1004.57 1005.55 1007.03 1008.74 1010.17 1011.60 1013.09 1014.23 1015.66 1016.71 1017.85 1018.78 1019.87 1020.65 1021.26 1022.39 1023.41 1024.06 1024.69 1025.19 1025.72 1026.09 1026.47 1026.82 1026.98 1027.08 1026.74
1009.85 1008.80 1006.90 1005.00 1004.15 1003.68 1003.26 1002.73 1002.47 1002.63 1001.20 1001.41 1001.12 1001.87 1002.63 1002.60 1002.84 1003.60 1004.86 1006.45 1008.19 1009.86 1011.19 1012.39 1013.72 1015.09 1016.25 1017.34 1018.32 1019.38 1020.04 1020.81 1021.90 1022.73 1023.24 1024.04 1024.64 1025.05 1025.53 1025.88 1026.18 1026.35 1026.65 1026.53
1009.31 1007.59 1005.63 1004.28 1003.34 1002.72 1002.83 1001.60 1001.16 1000.95 1000.60 1000.72 1001.76 1002.61 1003.05 1003.20 1003.35 1003.56 1004.83 1006.26 1007.73 1009.62 1011.11 1012.09 1013.12 1014.34 1015.59 1016.70 1017.83 1018.64 1019.37 1020.28 1021.30 1022.06 1022.60 1023.48 1024.12 1024.68 1025.21 1025.65 1026.04 1026.50 1026.78 1026.84
1008.24 1007.04 1004.84 1002.91 1002.86 1002.72 1002.35 1001.20 1000.95 1000.49 1000.27 1000.64 1001.55 1002.03 1001.77 1002.56 1003.36 1003.85 1004.91 1006.11 1007.61 1009.34 1010.70 1011.85 1013.14 1013.91 1014.93 1016.05 1017.06 1017.83 1018.96 1020.23 1020.99 1021.60 1022.27 1023.10 1023.92 1024.68 1025.15 1025.69 1026.26 1026.62 1027.06 1027.36
1007.36 1006.56 1005.27 1003.52 1003.24 1003.12 1002.83 1002.63 1001.80 1001.28 1000.69 1000.75 1001.30 1001.33 1001.77 1002.81 1003.80 1004.47 1005.16 1006.38 1007.89 1009.23 1010.19 1011.34 1012.67 1013.62 1014.45 1015.54 1016.55 1017.59 1018.83 1020.06 1020.87 1021.59 1022.52 1023.45 1024.12 1024.72 1025.22 1025.63 1026.17 1026.89 1027.27 1027.54
1006.16 1005.70 1004.70 1004.54 1003.86 1003.89 1004.13 1003.40 1003.12 1002.50 1001.90 1001.55 1001.64 1002.48 1002.68 1003.40 1004.24 1004.96 1005.71 1007.24 1008.22 1009.00 1010.15 1011.26 1012.44 1013.30 1013.95 1015.00 1016.39 1017.44 1018.61 1019.59 1020.51 1021.43 1022.40 1023.25 1024.15 1024.88 1025.31 1025.85 1026.48 1026.76 1027.02 1027.06
1005.19 1004.59 1004.79 1005.02 1005.15 1005.06 1004.91 1004.73 1003.91 1003.67 1002.62 1002.37 1002.39 1002.82 1003.34 1004.17 1004.79 1005.27 1006.21 1007.30 1008.21 1009.10 1010.13 1011.35 1012.38 1013.03 1013.72 1014.73 1015.96 1017.17 1018.24 1019.09 1020.06 1021.14 1022.11 1022.86 1023.65 1024.56 1024.92 1025.36 1025.83 1026.29 1026.60 1026.71
1005.18 1004.46 1004.42 1004.59 1005.10 1005.64 1005.61 1004.90 1004.23 1003.76 1003.24 1002.82 1002.67 1002.93 1003.62 1004.36 1004.81 1005.59 1006.49 1007.30 1007.98 1009.37 1010.25 1011.28 1012.26 1013.01 1013.77 1014.76 1015.84 1016.93 1017.86 1018.85 1019.89 1020.88 1021.78 1022.54 1023.17 1023.86 1024.21 1024.82 1025.34 1025.81 1026.19 1026.47
1004.17 1004.03 1004.04 1004.33 1004.80 1004.96 1005.14 1004.48 1003.93 1003.46 1003.42 1002.97 1002.67 1003.03 1003.50 1004.16 1004.92 1005.50 1006.29 1007.36 1008.26 1009.12 1010.07 1011.10 1012.16 1012.99 1013.70 1014.93 1015.76 1016.68 1017.66 1018.67 1019.71 1020.64 1021.60 1022.22 1022.88 1023.49 1024.04 1024.78 1025.15 1025.50 1026.05 1026.51
1003.81 1003.68 1003.84 1003.98 1004.12 1004.19 1004.15 1004.06 1003.65 1003.54 1003.45 1003.62 1003.49 1003.61 1004.20 1004.48 1004.87 1005.36 1006.42 1007.43 1008.23 1008.84 1009.86 1010.92 1012.01 1012.89 1013.76 1014.72 1015.55 1016.36 1017.39 1018.42 1019.38 1020.39 1021.12 1021.91 1022.69 1023.87 1025.15 1025.50 1026.21 1026.54 1026.93 1026.94
1003.72 1003.72 1003.99 1004.17 1004.03 1003.95 1003.88 1003.68 1003.59 1003.55 1003.50 1003.35 1003.76 1004.27 1004.49 1004.50 1005.23 1005.85 1006.58 1007.25 1007.84 1008.48 1009.51 1010.76 1011.76 1012.67 1013.59 1014.46 1015.29 1016.14 1017.01 1018.07 1019.19 1020.11 1020.81 1021.60 1022.48 1023.39 1024.71 1026.25 1026.75 1027.12 1027.44 1027.74
1003.64 1004.07 1003.86 1003.64 1003.40 1003.30 1003.45 1003.38 1003.50 1003.53 1003.50 1003.63 1003.84 1004.00 1004.11 1004.33 1005.02 1005.67 1006.25 1006.61 1007.43 1008.38 1009.42 1010.52 1011.43 1012.47 1013.40 1014.25 1015.13 1016.14 1017.02 1017.99 1018.94 1019.76 1020.61 1021.44 1022.21 1023.07 1024.03 1025.12 1026.05 1026.81 1027.55 1027.65
1003.48 1003.58 1003.61 1003.56 1003.48 1003.57 1003.42 1003.37 1003.38 1003.37 1003.34 1003.42 1003.52 1003.85 1004.16 1004.51 1005.05 1005.34 1005.96 1006.63 1007.44 1008.31 1009.39 1010.35 1011.27 1012.45 1013.37 1014.29 1015.21 1016.16 1017.12 1018.12 1018.98 1019.79 1020.66 1021.41 1022.12 1022.85 1023.60 1024.39 1025.16 1026.09 1027.12 1027.80
1003.37 1003.38 1003.26 1003.34 1003.23 1003.22 1003.30 1003.24 1003.33 1003.28 1003.39 1003.57 1003.63 1003.72 1003.86 1004.25 1004.72 1005.27 1005.83 1006.53 1007.27 1007.78 1008.50 1009.85 1010.95 1011.91 1012.91 1013.97 1015.07 1016.17 1017.01 1017.87 1018.80 1019.65 1020.45 1021.19 1021.82 1022.46 1023.15 1023.80 1024.69 1025.48 1026.27 1026.78
1003.51 1003.08 1003.15 1003.31 1003.38 1003.35 1003.60 1003.76 1003.80 1003.96 1004.07 1004.01 1004.06 1004.29 1004.46 1004.55 1004.98 1005.29 1005.75 1006.38 1007.20 1007.87 1008.65 1009.73 1010.55 1011.64 1012.70 1013.75 1014.62 1015.50 1016.45 1017.71 1018.50 1019.31 1019.99 1020.65 1021.32 1021.98 1022.60 1023.37 1024.18 1024.86 1025.54 1026.37
1003.69 1003.70 1003.96 1004.29 1004.34 1004.27 1004.31 1004.63 1004.73 1004.68 1004.58 1004.52 1004.62 1004.65 1004.82 1005.06 1004.85 1005.28 1005.91 1006.74 1007.55 1008.22 1008.88 1009.73 1010.69 1011.66 1012.58 1013.51 1014.26 1015.12 1016.04 1017.25 1018.14 1018.73 1019.47 1020.21 1020.86 1021.53 1022.25 1022.96 1023.66 1024.39 1025.29 1026.82
1004.35 1004.50 1004.90 1005.14 1005.20 1005.32 1005.16 1005.31 1005.51 1005.41 1005.29 1005.13 1005.01 1004.69 1004.60 1004.67 1004.89 1005.26 1006.00 1006.72 1007.35 1007.97 1008.79 1009.60 1010.55 1011.48 1012.43 1013.34 1013.91 1014.78 1015.76 1016.83 1017.69 1018.35 1019.11 1019.95 1020.72 1021.34 1022.04 1022.69 1023.31 1024.07 1025.09 1026.45
1004.93 1005.18 1005.44 1005.60 1005.90 1006.01 1005.70 1005.65 1005.71 1005.38 1005.28 1005.03 1004.82 1004.53 1004.29 1004.40 1004.70 1005.20 1005.70 1006.05 1006.34 1006.95 1008.49 1009.27 1010.05 1010.94 1012.04 1013.19 1013.80 1014.56 1015.57 1016.51 1017.27 1018.15 1019.00 1019.78 1020.47 1021.28 1021.97 1022.61 1023.20 1023.96 1024.95 1025.80
1005.48 1005.64 1005.77 1006.02 1006.00 1005.97 1005.87 1005.90 1005.68 1005.29 1005.12 1004.92 1004.60 1004.25 1004.15 1004.34 1004.73 1005.16 1005.76 1005.94 1006.91 1007.45 1008.04 1009.14 1009.50 1010.66 1011.81 1012.85 1013.58 1014.56 1015.47 1016.27 1017.16 1018.02 1018.88 1019.55 1020.41 1021.20 1021.93 1022.70 1023.39 1024.05 1024.78 1025.58
1005.51 1005.64 1005.65 1005.74 1005.76 1005.73 1005.73 1005.69 1005.70 1005.50 1005.26 1004.86 1004.64 1004.53 1004.48 1004.61 1004.92 1005.34 1005.71 1005.57 1007.00 1007.63 1008.33 1008.95 1009.75 1010.52 1011.45 1012.66 1013.38 1014.50 1015.37 1016.23 1017.12 1017.94 1018.76 1019.54 1020.39 1021.17 1021.92 1022.64 1023.29 1024.02 1024.82 1025.60
1005.31 1005.34 1005.36 1005.45 1005.44 1005.40 1005.50 1005.49 1005.62 1005.58 1005.35 1005.11 1004.87 1004.76 1004.63 1004.53 1004.67 1005.00 1005.82 1006.85 1007.50 1008.28 1008.51 1009.31 1010.13 1011.11 1012.03 1012.65 1013.66 1014.57 1015.44 1016.31 1017.12 1017.91 1018.72 1019.63 1020.39 1021.18 1021.84 1022.53 1023.25 1024.11 1024.89 1025.59
1005.04 1005.00 1004.98 1005.14 1005.31 1005.26 1005.21 1005.23 1005.53 1005.55 1005.44 1005.24 1005.15 1005.12 1005.04 1005.13 1005.49 1005.79 1006.22 1007.23 1007.80 1008.30 1008.91 1009.88 1010.90 1011.68 1012.16 1012.99 1013.91 1014.78 1015.65 1016.49 1017.27 1018.11 1019.00 1019.84 1020.60 1021.27 1021.91 1022.64 1023.46 1024.21 1024.96 1025.82
1004.82 1004.86 1004.91 1004.98 1004.91 1004.90 1005.17 1005.37 1005.42 1005.33 1005.26 1005.25 1005.48 1005.61 1005.71 1005.84 1005.83 1006.41 1006.89 1007.57 1008.37 1008.82 1009.70 1010.77 1011.43 1011.98 1012.54 1013.39 1014.22 1015.03 1015.77 1016.61 1017.45 1018.32 1019.20 1019.88 1020.62 1021.33 1022.09 1022.99 1023.59 1024.31 1025.19 1025.90
1004.39 1004.38 1004.47 1004.55 1004.68 1004.92 1005.12 1005.27 1005.18 1005.22 1005.22 1005.41 1005.71 1006.00 1006.26 1006.51 1006.75 1007.11 1007.62 1008.31 1008.93 1009.47 1010.27 1011.28 1011.91 1012.34 1013.03 1013.80 1014.57 1015.33 1016.14 1017.02 1017.87 1018.52 1019.24 1020.01 1020.74 1021.50 1022.29 1023.07 1023.87 1024.65 1025.27 1025.92
1004.10 1004.30 1004.31 1004.39 1004.53 1004.76 1004.98 1005.15 1005.27 1005.35 1005.53 1005.68 1005.99 1006.49 1006.76 1007.06 1007.41 1007.78 1008.32 1008.87 1009.45 1010.09 1010.84 1011.48 1012.25 1012.82 1013.51 1014.29 1015.07 1015.86 1016.65 1017.38 1018.08 1018.85 1019.54 1020.27 1021.02 1021.77 1022.53 1023.28 1024.01 1024.65 1025.45 1026.26
Thickness
5486 5494 5499 5500 5497 5507 5502 5506 5499 5524 5527 5562 5556 5550 5539 5545 5533 5526 5521 5508 5495 5482 5469 5460 5454 5439 5434 5425 5413 5405 5397 5387 5378 5369 5364 5356 5347 5343 5338 5333 5329 5326 5326 5324
5473 5489 5487 5486 5495 5503 5504 5511 5511 5516 5529 5550 5543 5540 5533 5538 5532 5529 5523 5516 5501 5486 5473 5460 5453 5441 5430 5420 5411 5403 5393 5388 5378 5367 5358 5349 5343 5338 5333 5326 5322 5319 5319 5318
5462 5486 5480 5462 5489 5494 5508 5514 5510 5505 5538 5545 5538 5528 5530 5538 5534 5530 5526 5515 5503 5490 5474 5461 5451 5437 5427 5416 5408 5397 5391 5386 5376 5365 5358 5349 5343 5336 5331 5325 5320 5315 5313 5314
5449 5467 5448 5501 5517 5514 5513 5520 5518 5511 5532 5529 5533 5530 5524 5531 5531 5527 5520 5509 5495 5477 5467 5456 5445 5432 5422 5412 5403 5393 5388 5381 5370 5362 5355 5346 5339 5334 5328 5322 5317 5313 5309 5309
5440 5466 5482 5494 5507 5506 5497 5512 5521 5520 5527 5525 5515 5508 5508 5510 5512 5516 5508 5498 5487 5469 5454 5449 5441 5430 5419 5410 5399 5392 5386 5377 5366 5359 5352 5342 5334 5328 5322 5317 5311 5305 5302 5300
5443 5444 5467 5502 5496 5498 5500 5500 5513 5517 5518 5515 5510 5501 5513 5509 5505 5505 5498 5491 5479 5462 5451 5442 5431 5425 5417 5407 5397 5391 5381 5368 5360 5354 5346 5336 5327 5320 5314 5308 5301 5297 5293 5289
5446 5438 5449 5487 5487 5488 5482 5491 5494 5500 5506 5508 5501 5509 5508 5501 5494 5492 5489 5480 5467 5454 5447 5438 5427 5420 5413 5403 5393 5384 5372 5361 5353 5345 5334 5324 5317 5311 5305 5301 5295 5288 5284 5281
5447 5443 5459 5467 5474 5471 5465 5472 5472 5480 5486 5492 5495 5488 5492 5489 5481 5477 5473 5459 5454 5449 5440 5431 5422 5415 5410 5399 5387 5377 5366 5356 5347 5338 5327 5317 5308 5302 5296 5291 5284 5281 5279 5279
5454 5460 5455 5451 5448 5451 5451 5450 5460 5460 5475 5479 5481 5479 5478 5468 5468 5469 5463 5454 5447 5441 5432 5422 5414 5410 5404 5394 5382 5370 5360 5352 5343 5331 5320 5313 5305 5296 5292 5288 5283 5278 5276 5275
5440 5454 5454 5451 5437 5428 5433 5444 5452 5458 5463 5469 5472 5473 5469 5464 5464 5458 5453 5447 5443 5429 5423 5415 5408 5402 5395 5385 5375 5364 5355 5346 5335 5324 5315 5307 5302 5295 5291 5285 5280 5276 5272 5269
5448 5452 5452 5447 5438 5433 5430 5444 5451 5456 5456 5462 5469 5467 5466 5462 5456 5454 5448 5439 5431 5424 5417 5409 5401 5394 5387 5375 5367 5358 5349 5339 5328 5318 5308 5302 5296 5290 5285 5279 5275 5271 5266 5261
5437 5448 5446 5445 5443 5441 5438 5441 5446 5448 5448 5445 5453 5455 5450 5453 5450 5448 5439 5430 5423 5420 5412 5403 5393 5386 5378 5369 5361 5353 5343 5333 5323 5312 5304 5297 5290 5280 5269 5265 5259 5256 5252 5250
5440 5441 5437 5434 5437 5437 5436 5439 5440 5439 5442 5445 5444 5441 5441 5446 5439 5432 5429 5422 5418 5415 5408 5396 5387 5380 5371 5363 5355 5347 5339 5328 5316 5305 5299 5292 5284 5277 5265 5252 5248 5244 5241 5237
5436 5431 5431 5436 5436 5440 5437 5437 5433 5433 5434 5434 5434 5436 5437 5438 5431 5428 5424 5421 5414 5408 5400 5390 5382 5372 5363 5356 5348 5338 5330 5319 5310 5301 5293 5285 5278 5271 5263 5254 5247 5239 5233 5229
5431 5431 5429 5430 5429 5426 5428 5428 5427 5428 5430 5429 5430 5428 5427 5424 5422 5422 5417 5412 5406 5400 5391 5382 5374 5362 5355 5347 5338 5329 5321 5310 5301 5293 5284 5277 5271 5264 5259 5252 5245 5237 5227 5220
5427 5426 5427 5424 5424 5423 5422 5421 5419 5420 5420 5421 5421 5420 5421 5420 5419 5414 5410 5404 5398 5396 5389 5376 5368 5358 5351 5341 5331 5321 5313 5304 5295 5286 5278 5271 5265 5260 5254 5248 5240 5233 5225 5219
5416 5425 5423 5419 5418 5415 5411 5409 5406 5404 5402 5403 5404 5404 5406 5407 5401 5398 5396 5392 5386 5381 5376 5367 5361 5352 5343 5334 5326 5318 5309 5297 5290 5282 5274 5268 5262 5256 5251 5243 5235 5229 5221 5212
5411 5409 5404 5399 5397 5397 5394 5389 5385 5386 5387 5388 5387 5386 5385 5386 5393 5388 5383 5378 5373 5368 5365 5359 5351 5343 5336 5327 5320 5312 5304 5292 5284 5278 5270 5264 5258 5252 5245 5238 5230 5222 5213 5196
5392 5390 5382 5376 5373 5371 5370 5368 5365 5365 5365 5367 5371 5377 5381 5382 5383 5380 5373 5369 5366 5362 5356 5350 5343 5336 5328 5320 5314 5307 5297 5286 5278 5272 5266 5258 5250 5245 5237 5230 5224 5215 5204 5190
5378 5372 5364 5354 5346 5344 5348 5351 5352 5356 5358 5361 5365 5371 5377 5377 5374 5370 5367 5367 5369 5367 5349 5345 5339 5333 5323 5312 5306 5300 5290 5280 5273 5266 5258 5251 5244 5236 5229 5222 5215 5206 5195 5185
5361 5352 5345 5340 5338 5336 5338 5340 5345 5351 5353 5356 5360 5367 5371 5370 5365 5363 5360 5366 5353 5348 5346 5337 5336 5327 5317 5307 5300 5291 5282 5274 5266 5259 5251 5245 5236 5228 5220 5211 5203 5195 5186 5177
5349 5345 5340 5338 5336 5335 5336 5337 5339 5341 5345 5350 5352 5355 5358 5357 5355 5354 5354 5363 5347 5341 5336 5332 5326 5319 5312 5300 5294 5283 5274 5267 5259 5251 5244 5237 5228 5220 5211 5203 5194 5186 5176 5165
5347 5343 5341 5336 5334 5336 5334 5334 5334 5334 5338 5341 5344 5347 5352 5355 5354 5353 5348 5339 5334 5328 5327 5321 5315 5306 5297 5292 5282 5274 5266 5258 5251 5244 5236 5227 5219 5211 5203 5194 5185 5174 5164 5154
5344 5340 5338 5335 5331 5332 5333 5334 5330 5330 5331 5335 5337 5338 5341 5342 5338 5337 5334 5325 5322 5319 5316 5309 5300 5292 5288 5281 5272 5264 5257 5249 5242 5234 5225 5216 5208 5201 5193 5183 5173 5163 5153 5141
5339 5335 5332 5329 5331 5331 5326 5324 5324 5327 5328 5328 5326 5327 5327 5327 5329 5322 5320 5315 5310 5307 5300 5291 5286 5282 5277 5269 5262 5255 5248 5240 5232 5223 5214 5207 5199 5190 5181 5170 5162 5152 5140 5131
5339 5337 5334 5330 5326 5322 5319 5318 5321 5322 5323 5321 5318 5316 5314 5312 5310 5308 5305 5301 5296 5292 5286 5277 5273 5270 5264 5258 5251 5244 5237 5228 5220 5213 5205 5196 5188 5179 5169 5159 5148 5138 5130 5121
5335 5329 5329 5327 5323 5318 5315 5314 5313 5312 5311 5311 5309 5304 5302 5300 5297 5295 5291 5288 5284 5279 5273 5269 5263 5259 5253 5246 5239 5231 5224 5216 5209 5201 5193 5184 5175 5166 5156 5146 5137 5129 5119 5109